Date String (YYYY-MM-DD hh:mm:ss) UTC,Instrument flags,absolute air pressure of the measurement (hPa),sample flow rate (lpm),inlet stack bypass flow (lpm),air temperature of the measurement (°C),ambient temperature measured by the external sensor (°C),aerosol sample conditioner tube jacket temperature (°C),OPC LED temperature (°C),internal box temperature (°C),relative humidity of the measurement (%),span deviation,mass concentration of particles derived from Lorenz-Mie calculation of OPC scattering (μg/m³),mass concentration of particles derived from Lorenz-Mie calculation of OPC scattering (μg/m³),mass concentration of particles derived from Lorenz-Mie calculation of OPC scattering (μg/m³)
DateTimeUTC,F1_M11,P_M11,Q1_M11,Q2_M11,T1_M11,T2_M11,T3_M11,T4_M11,T5_M11,U1_M11,ZSPAN_M11,X0_M11,X2_M11,X1_M11
2023-12-23 19:00:00,SystemResetWarning,0818.6,5.00,000.00,024.1,023.3,000.0,032.3,025.5,14.2,0000.0,0010.75,0004.42,0004.00
2023-12-23 19:01:00,SystemResetWarning,0818.6,4.99,000.00,024.1,023.3,000.0,032.3,025.5,14.2,0000.0,0009.76,0004.37,0003.96
2023-12-23 19:02:00,SystemResetWarning,0818.6,5.00,000.00,024.1,023.3,000.0,032.3,025.5,14.1,0000.0,0009.64,0004.31,0003.91
2023-12-23 19:03:00,SystemResetWarning,0818.6,5.01,000.00,024.1,023.3,000.0,032.3,025.5,14.1,0000.0,0009.37,0004.29,0003.87
2023-12-23 19:04:00,SystemResetWarning,0818.5,5.01,000.00,024.1,023.3,000.0,032.3,025.5,14.1,0000.0,0008.93,0004.22,0003.81
2023-12-23 19:05:00,SystemResetWarning,0818.5,5.00,000.00,024.1,023.3,000.0,032.3,025.5,13.9,0000.0,0008.76,0004.16,0003.75
2023-12-23 19:06:00,SystemResetWarning,0818.5,4.99,000.00,024.1,023.3,000.0,032.4,025.5,13.7,0000.0,0008.94,0004.07,0003.68
2023-12-23 19:07:00,SystemResetWarning,0818.5,4.99,000.00,024.1,023.3,000.0,032.4,025.5,13.8,0000.0,0009.17,0003.95,0003.60
2023-12-23 19:08:00,SystemResetWarning,0818.4,5.01,000.00,024.1,023.4,000.0,032.4,025.6,14.0,0000.0,0010.02,0003.83,0003.51
2023-12-23 19:09:00,SystemResetWarning,0818.4,5.01,000.00,024.1,023.4,000.0,032.4,025.6,13.9,0000.0,0009.54,0003.72,0003.41
2023-12-23 19:10:00,SystemResetWarning,0818.4,5.01,000.00,024.2,023.4,000.0,032.4,025.6,14.1,0000.0,0009.37,0003.63,0003.32
2023-12-23 19:11:00,SystemResetWarning,0818.4,5.01,000.00,024.2,023.4,000.0,032.4,025.6,14.1,0000.0,0009.26,0003.52,0003.20
2023-12-23 19:12:00,SystemResetWarning,0818.4,5.00,000.00,024.2,023.4,000.0,032.4,025.6,13.9,0000.0,0009.05,0003.36,0003.05
2023-12-23 19:13:00,SystemResetWarning,0818.4,4.99,000.00,024.2,023.4,000.0,032.4,025.6,14.0,0000.0,0008.87,0003.23,0002.83
2023-12-23 19:14:00,SystemResetWarning,0818.4,4.99,000.00,024.2,023.4,000.0,032.4,025.6,14.1,0000.0,0008.64,0003.06,0002.59
2023-12-23 19:15:00,SystemResetWarning,0818.3,5.01,000.00,024.2,023.5,000.0,032.4,025.7,14.1,0000.0,0007.89,0002.85,0002.40
2023-12-23 19:16:00,SystemResetWarning,0818.3,5.01,000.00,024.2,023.5,000.0,032.5,025.6,14.1,0000.0,0007.49,0002.65,0002.21
2023-12-23 19:17:00,SystemResetWarning,0818.3,5.00,000.00,024.2,023.5,000.0,032.5,025.7,14.2,0000.0,0006.78,0002.47,0002.06
2023-12-23 19:18:00,SystemResetWarning,0818.3,4.99,000.00,024.2,023.5,000.0,032.5,025.7,14.1,0000.0,0006.55,0002.31,0001.89
2023-12-23 19:19:00,SystemResetWarning,0818.3,4.99,000.00,024.3,023.5,000.0,032.5,025.7,14.1,0000.0,0004.53,0002.19,0001.72
2023-12-23 19:20:00,SystemResetWarning,0818.2,5.00,000.00,024.3,023.5,000.0,032.5,025.7,14.4,0000.0,0004.30,0002.03,0001.58
2023-12-23 19:21:00,SystemResetWarning,0818.1,5.01,000.00,024.3,023.5,000.0,032.5,025.7,14.2,0000.0,0004.04,0001.88,0001.46
2023-12-23 19:22:00,SystemResetWarning,0818.2,5.01,000.00,024.3,023.6,000.0,032.5,025.7,14.1,0000.0,0003.84,0001.72,0001.35
2023-12-23 19:23:00,SystemResetWarning,0818.1,5.01,000.00,024.3,023.6,000.0,032.5,025.7,14.1,0000.0,0003.77,0001.65,0001.28
2023-12-23 19:24:00,SystemResetWarning,0818.2,5.00,000.00,024.3,023.6,000.0,032.5,025.8,14.0,0000.0,0003.83,0001.61,0001.24
2023-12-23 19:25:00,SystemResetWarning,0818.2,5.00,000.00,024.3,023.6,000.0,032.6,025.8,14.0,0000.0,0004.48,0001.54,0001.19
2023-12-23 19:26:00,SystemResetWarning,0818.2,5.00,000.00,024.3,023.6,000.0,032.6,025.8,14.0,0000.0,0005.41,0001.51,0001.14
2023-12-23 19:27:00,SystemResetWarning,0818.2,4.99,000.00,024.3,023.6,000.0,032.6,025.8,13.9,0000.0,0005.30,0001.45,0001.08
2023-12-23 19:28:00,SystemResetWarning,0818.2,5.01,000.00,024.3,023.6,000.0,032.6,025.9,13.9,0000.0,0005.22,0001.39,0001.00
2023-12-23 19:29:00,SystemResetWarning,0818.2,5.01,000.00,024.4,023.6,000.0,032.6,025.9,14.0,0000.0,0004.63,0001.33,0000.96
2023-12-23 19:30:00,SystemResetWarning,0818.2,5.00,000.00,024.4,023.7,000.0,032.6,025.9,13.8,0000.0,0004.63,0001.26,0000.94
2023-12-23 19:31:00,SystemResetWarning,0818.2,5.00,000.00,024.4,023.7,000.0,032.6,025.9,13.7,0000.0,0004.50,0001.21,0000.93
2023-12-23 19:32:00,SystemResetWarning,0818.1,5.00,000.00,024.4,023.7,000.0,032.6,025.9,13.7,0000.0,0004.68,0001.27,0000.96
2023-12-23 19:33:00,SystemResetWarning,0818.1,5.00,000.00,024.4,023.7,000.0,032.6,025.9,13.7,0000.0,0004.97,0001.35,0001.02
2023-12-23 19:34:00,SystemResetWarning,0818.1,5.01,000.00,024.4,023.7,000.0,032.6,025.9,13.7,0000.0,0005.39,0001.43,0001.11
2023-12-23 19:35:00,SystemResetWarning,0818.0,5.00,000.00,024.4,023.7,000.0,032.7,025.9,13.7,0000.0,0005.86,0001.56,0001.22
2023-12-23 19:36:00,SystemResetWarning,0818.0,5.00,000.00,024.4,023.7,000.0,032.7,025.9,13.7,0000.0,0007.22,0001.69,0001.31
2023-12-23 19:37:00,SystemResetWarning,0817.9,5.00,000.00,024.4,023.7,000.0,032.7,025.9,13.9,0000.0,0006.67,0001.84,0001.44
2023-12-23 19:38:00,SystemResetWarning,0818.0,5.00,000.00,024.4,023.7,000.0,032.7,025.9,14.0,0000.0,0006.76,0001.96,0001.55
2023-12-23 19:39:00,SystemResetWarning,0817.8,4.99,000.00,024.4,023.7,000.0,032.7,025.9,14.0,0000.0,0007.02,0002.14,0001.66
2023-12-23 19:40:00,SystemResetWarning,0817.8,5.00,000.00,024.4,023.7,000.0,032.7,025.9,14.0,0000.0,0006.83,0002.24,0001.74
2023-12-23 19:41:00,SystemResetWarning,0817.8,5.00,000.00,024.4,023.7,000.0,032.7,025.9,14.1,0000.0,0006.62,0002.36,0001.83
2023-12-23 19:42:00,SystemResetWarning,0817.8,5.00,000.00,024.4,023.8,000.0,032.7,025.9,14.0,0000.0,0007.11,0002.52,0001.90
2023-12-23 19:43:00,SystemResetWarning,0817.7,4.99,000.00,024.5,023.8,000.0,032.7,025.9,14.1,0000.0,0007.21,0002.56,0001.95
2023-12-23 19:44:00,SystemResetWarning,0817.8,5.00,000.00,024.5,023.8,000.0,032.7,026.0,14.0,0000.0,0007.13,0002.56,0001.95
2023-12-23 19:45:00,SystemResetWarning,0817.8,5.00,000.00,024.5,023.8,000.0,032.7,026.0,14.0,0000.0,0007.71,0002.51,0001.90
2023-12-23 19:46:00,SystemResetWarning,0817.9,5.01,000.00,024.5,023.8,000.0,032.7,026.0,14.0,0000.0,0007.72,0002.39,0001.79
2023-12-23 19:47:00,SystemResetWarning,0817.9,5.01,000.00,024.5,023.8,000.0,032.7,026.0,14.1,0000.0,0006.19,0002.26,0001.68
2023-12-23 19:48:00,SystemResetWarning,0817.9,5.01,000.00,024.5,023.8,000.0,032.8,026.0,14.0,0000.0,0005.63,0002.12,0001.57
2023-12-23 19:49:00,SystemResetWarning,0817.9,5.00,000.00,024.5,023.8,000.0,032.8,026.0,14.0,0000.0,0005.45,0001.99,0001.47
2023-12-23 19:50:00,SystemResetWarning,0817.8,5.00,000.00,024.5,023.8,000.0,032.8,026.0,13.9,0000.0,0005.19,0001.83,0001.37
2023-12-23 19:51:00,SystemResetWarning,0817.7,4.99,000.00,024.5,023.8,000.0,032.8,025.9,14.1,0000.0,0004.97,0001.72,0001.29
2023-12-23 19:52:00,SystemResetWarning,0817.8,4.99,000.00,024.5,023.8,000.0,032.8,025.9,14.3,0000.0,0004.74,0001.62,0001.22
2023-12-23 19:53:00,SystemResetWarning,0817.8,4.99,000.00,024.5,023.8,000.0,032.8,026.0,14.0,0000.0,0004.35,0001.51,0001.17
2023-12-23 19:54:00,SystemResetWarning,0817.7,5.00,000.00,024.5,023.8,000.0,032.8,026.0,14.0,0000.0,0004.25,0001.50,0001.11
2023-12-23 19:55:00,SystemResetWarning,0817.7,5.01,000.00,024.5,023.8,000.0,032.8,026.0,14.0,0000.0,0004.21,0001.51,0001.09
2023-12-23 19:56:00,SystemResetWarning,0817.7,5.01,000.00,024.5,023.8,000.0,032.8,026.0,13.9,0000.0,0003.11,0001.58,0001.17
2023-12-23 19:57:00,SystemResetWarning,0817.6,4.99,000.00,024.5,023.8,000.0,032.8,026.0,13.9,0000.0,0002.69,0001.72,0001.31
2023-12-23 19:58:00,SystemResetWarning,0817.6,4.99,000.00,024.5,023.8,000.0,032.8,026.0,14.0,0000.0,0002.91,0001.84,0001.45
2023-12-23 19:59:00,SystemResetWarning,0817.6,5.01,000.00,024.5,023.9,000.0,032.8,026.0,13.9,0000.0,0003.21,0001.97,0001.57
